903  
ASHW40 PHFO 012310  
RWRHI  
 
WEATHER ROUNDUP FOR HAWAII  
NATIONAL WEATHER SERVICE HONOLULU HI  
100 PM HST MON SEP 01 2014  
 
THIS IS AN AUTOMATED REPORT THAT HAS NOT BEEN QUALITY CONTROLLED.  
 
NOTE..."FAIR" INDICATES FEW OR NO CLOUDS BELOW 12,000 FEET WITH NO  
SIGNIFICANT WEATHER AND/OR S TO VISIBILITY
.  
 
* - THESE SITES REPORT LIMITED FIELDS  
 
HIZ001>004-020000-  
KAUAI-NIIHAU-  
 
CITY SKY/WX TMP DP RH WIND PRES REMARKS
 
LIHUE APT SUNNY 85 71 63 E6 30.02F HX 90  
PORT ALLEN* N/A 84 N/A N/A S7 N/A  
POIPU* N/A 88 N/A N/A SE2G8 N/A  
PRINCEVILLE* NOT AVBL  
KOKOLE POINT* NOT AVBL  
MOLOAA DAIRY* NOT AVBL  
WAIMEA HTS* NOT AVBL  
PUU OPAE* NOT AVBL  
PUU LUA* NOT AVBL  
MAKAHA RIDGE* NOT AVBL  

 
 
HIZ005>011-020000-  
OAHU-  
 
CITY SKY/WX TMP DP RH WIND PRES REMARKS
 
HONOLULU MOSUNNY 86 70 58 S10 30.00F HX 90  
KALAELOA SUNNY 85 72 65 S9 30.02F HX 91  
KANEOHE MCB MOSUNNY 84 72 66 E8 30.01F HX 90  
WHEELER FIELD CLOUDY 82 69 66 NW9 30.02F  
BELLOWS* NOT AVBL  
KAHUKU* NOT AVBL  
WHEELER* NOT AVBL  
WAIANAE HARBOR NOT AVBL  
DILLINGHAM* N/A 99 73 44 NW2G12 N/A HX 109  
KAHUKU TRN* N/A 82 73 74 E7G15 N/A  
KAWAILOA* NOT AVBL  
KII* N/A 84 75 74 E12G17 N/A HX 92  
MAKUA RANGE* N/A 86 72 62 W6 N/A HX 92  
OAHU FOREST NW NOT AVBL  
SCHOFIELD BRK* N/A 81 70 69 MISG N/A  
SCHOFIELD S* NOT AVBL  
WAIANAE VLY* NOT AVBL  
KUAOKALA* NOT AVBL  
HONOULIUULI* NOT AVBL  
MOKUOLOE IS* N/A N/A N/A N/A MISG N/A  
PALEHUA* NOT AVBL  
WAIAWA PHB* NOT AVBL  

 
 
HIZ012>013-020000-  
MOLOKAI-  
 
CITY SKY/WX TMP DP RH WIND PRES REMARKS
 
MOLOKAI AIRPT MOSUNNY 84 74 71 VRB5 30.03 HX 91  
KALAUPAPA NOT AVBL  
MAKAPULAPAI* NOT AVBL  
MOLOKAI 1* NOT AVBL  
PUU ALII* NOT AVBL  

 
 
HIZ016-020000-  
KAHOOLAWE-  
 
CITY SKY/WX TMP DP RH WIND PRES REMARKS
 
KAHOOLAWE* NOT AVBL  
HAKIOAWA* NOT AVBL  
HONOKANAIA* N/A 87 73 61 S5G10 30.02F HX 94  
KANELOA* N/A 84 72 65 E15G25 29.26F  
KEALIALALO* NOT AVBL  
LUA MAKIKA* NOT AVBL  

 
 
HIZ014>015-020000-  
LANAI-  
 
CITY SKY/WX TMP DP RH WIND PRES REMARKS
 
LANAI CITY FAIR 87 71 58 NW7 30.08F HX 92  
LANAI 1* NOT AVBL  

 
 
HIZ017>028-020000-  
MAUI-  
 
CITY SKY/WX TMP DP RH WIND PRES REMARKS
 
KAHULUI MOSUNNY 92 71 50 NE13 30.00F HX 98  
KAPALUA-W MAUI MOSUNNY 91 73 55 N16 30.01 HX 100  
HANA AIRPORT SUNNY 84 73 70 SE12 30.04F HX 91  
HANA* NOT AVBL  
HALEAKALA SUMM N/A 61 48 63 W3G23 N/A  
MAALAEA BAY* NOT AVBL  
HALEAKALA* NOT AVBL  
KAUPO GAP* NOT AVBL  
KULA 1* N/A 65 58 78 NW7G13 N/A  

 
 
HIZ023>026-020000-  
BIG ISLAND OF HAWAII COAST AND LOWER SLOPES-  
 
CITY SKY/WX TMP DP RH WIND PRES REMARKS
 
KAILUA KONA MOSUNNY 88 72 58 SW12 29.97F HX 94  
HILO NOT AVBL  
HONOKAA* NOT AVBL  
KAWAIHAE MWT* NOT AVBL  
KAWAIHAE* N/A 82 N/A N/A W3 N/A  
SOUTH POINT* NOT AVBL  
UPOLU AIRPORT* NOT AVBL  
KAMUELA* PTCLDY 84 64 51 NE16 30.12S  
HAKALAU* N/A 66 59 79 SE5G12 N/A  
KALOKO-HONOKO* NOT AVBL  
PALI 2* N/A 70 70 100 SE8G15 N/A  
KEALAKOMO* NOT AVBL  
KAUPULEHU* NOT AVBL  
KAPAPALA* NOT AVBL  
LOWER KAHUKU* NOT AVBL  
PUHE CS* NOT AVBL  
PUHO CS* NOT AVBL  
PTA KEAMUKU* N/A 75 64 69 NW8G17 N/A  
WAIKOLOA* NOT AVBL  

 
 
HIZ027>028-020000-  
BIG ISLAND OF HAWAII INTERIOR AND SUMMMITS-  
 
CITY SKY/WX TMP DP RH WIND PRES REMARKS
 
BRADSHAW FIELD MOSUNNY 74 59 59 W16G26 30.36F  
MK VISITOR CEN NOT AVBL  
MAUNA KEA* N/A 54 16 22 E2 N/A  
MAUNA LOA* N/A 54 43 66 MISG N/A  
MAUNA LOA 1* NOT AVBL  
PTA KIPUKA* N/A 75 61 60 NW10G16 N/A  
PTA RANGE 17* N/A 70 59 68 NW12G20 N/A  
PTA WEST* N/A 73 64 73 NW9G16 N/A  
NENE CABIN* NOT AVBL  
AHUMOA* NOT AVBL  
PTA PORTABLE* NOT AVBL  
PUU MALI* NOT AVBL  

 
 
HIC003-020000-  
NORTHWEST ISLANDS-  
 
CITY SKY/WX TMP DP RH WIND PRES REMARKS
 
MIDWAY ISLAND MOSUNNY 90 72 55 SW7 30.03F HX 96  
MIDWAY NOS* NOT AVBL  
FRENCH FRIGATE NOT AVBL  

 
 
PHZ110>124-180-020000-  
BUOY REPORTS  
 
STATION/POSITION TIME TEMP WIND PRES WAVE SWELL
 
AIR SEA DIR/SP/G HT/PER HT/DIR  
(UTC) (F) (DEG/KT/KT) (MB) (FT/S) (FT/D)  
BUOY 51001 NOT AVBL  
BUOY 51101 NOT AVBL  
BUOY 51100 2300 79 80 120/ 12/ 14 1017.4F  
BUOY 51003 2200 81 82 80/ 14/ 16 1016.1F 5/12 3  
BUOY 51004 2229 80 81 90/ 10/ 12 1014.8F 6/14 5/180  
BARBERS PT BUOY NOT AVBL  
WAIMEA BAY BUOY 2300 81 N/A 2/ 7 2/ 50  
KAILUA BAY BUOY 2300 82 N/A 4/11 2/ 70  
LANAI BUOY NOT AVBL  
BARBERS PT 2 2300 83 N/A 4/13 3/190  
PAUWELA MAUI 2300 81 N/A 5/10 2/ 80  
HILO NOT AVBL  
KANEOHE BAY BUOY 2300 82 N/A 3/10 2/ 70  
HANALEI KAUAI NOT AVBL  
KAHULUI HARBOR 2300 82 83 360/ 8/ 13 1015.9F  
HONOLULU HARBOR 2300 83 200/ 7/ 10 1016.5F  
KILO NALU NOT AVBL  
HILO HARBOR 2300 88 80/ 8/ 12 1015.7F  
MOKUOLOE 2300 84 1016.6F  
NAWILIWILI 2300 82 N/A  
WHOTS BUOY NOT AVBL  
BUOY 51028 NOT AVBL  

 
   
.....................KEY.....................................
 
 
SKY/WX - SKY CONDITIONS/PRESENT WEATHER  
TMP - TEMPERATURE IN FAHRENHEIT  
DWPT - DEWPOINT IN FAHRENHEIT  
RH - RELATIVE HUMIDITY IN PERCENT  
WIND - DIRECTION AND SPEED /MPH FOR ISLANDS...KTS FOR BUOYS/  
PRES - MEAN SEA LEVEL PRESSURE IN INCHES OF HG  
VSB - VISIBILITY IN MILES  
HX - HEAT INDEX  
WCI - WIND CHILL INDEX  
VRB - VARIABLE WIND DIRECTION  
N/A - NOT AVAILABLE  
 
CLICK HERE TO GO TO PREVIOUS BULLETINS.

The Nexlab HI Page Main Text Page

The Nexlab HI Page Main Text Page